sat.trackr.live / text

‹ back to catalog

STARLINK-31077

NORAD 58637 · 2023-203V

PAYLOAD ACTIVE UNKNOWN

§ Identity

Operator
Country
US
Launch date
2023-12-23
Launch site
AFETR
Launch vehicle
Mass (kg)
RCS (m²)

Purposes: comms

External: N2YO · Heavens-Above · Gunter

§ Orbital elements

Epoch: 2026-05-24T23:07:40.401120Z

Period
94.27 min
Inclination
43.0018°
Eccentricity
0.0001010
Mean motion
15.27590516 rev/d
Perigee alt
482.3 km
Apogee alt
483.7 km
Semi-major
6,861.2 km
B*
1.5214e-4
RAAN
356.5885°
Arg perigee
280.4110°
Mean anomaly
79.6628°
Rev number
13,645

§ Raw data

STARLINK-310771 58637U 23203V   26144.96366205  .00003928  00000+0  15214-3 0  99902 58637  43.0018 356.5885 0001010 280.4110  79.6628 15.27590516136453

JSON: /api/v1/satellites/58637 · /tle

For live sub-satellite position, see the globe view (requires WebGL).

§ Visibility from observer

Set your observer location to see the next 7 days of passes ≥ 10°. The values pass through the URL so the page stays shareable.

No JS? Fill the form by hand. The geolocation button needs JavaScript.